(250334) = 1978 WD9 = 2003 SP111

Discovered at Socorro on 2003-09-20 by LINEAR.

Orbit

Orbit type: Main Belt

Note: WebGL enabled browser required.

epoch2024-03-31.0
epoch JD2460400.5
perihelion date2025-05-06.15620
perihelion JD2460801.65620
argument of perihelion (°)321.91541
ascending node (°)81.07129
inclination (°)5.98858
eccentricity0.2209151
perihelion distance (AU)1.8245399
Tisserand w.r.t. Jupiter3.5
ΔV w.r.t. Earth (km/sec)8.6
semimajor axis (AU)2.3419012
mean anomaly (°)249.67740
mean daily motion (°/day)0.27501160
aphelion distance (AU)2.859
period (years)3.58
P-vector [x]0.72818661
P-vector [y]0.65164312
P-vector [z]0.21238055
Q-vector [x]-0.67758518
Q-vector [y]0.63787266
Q-vector [z]0.36605574
absolute magnitude17.14
phase slope0.15
uncertainty0
referenceMPEC 2024-C115
observations used570
oppositions14
arc length (days)16245
first opposition used1978
last opposition used2023
residual rms (arc-secs)0.62
perturbers coarse indicatorM-v
perturbers precise indicator003Ek
first observation date used1978-11-29.0
last observation date used2023-05-22.0
computer nameMPCLINUX
JD of orbit computation2456966.936958
perihelion JD uncertainty (days)6.7453E-05
argument of perihelion uncertainty (°)7.3413E-05
ascending node uncertainty (°)7.1158E-05
inclination uncertainty (°)6.7462E-06
eccentricity uncertainty 7.5646E-08
perihelion distance uncertainty (AU)1.8062E-07
Minimum Orbit Intersection Distances (in AU)
for orbit epoch: 2460200.5, reference: E2024-CB5
Mercury1.50417
Venus1.10223
Earth0.83743
Mars0.3445
Jupiter2.54387
Saturn6.8666
Uranus15.7735
Neptune27.8132

Observations

583 total observations over interval: 1978 11 29.34653 – 2023 05 22.260176
These data are available for download (format description).

Date (UT) J2000 RA J2000 Dec Magn Location Ref
1978 11 29.34653 04 30 02.97 +18 45 51.7 20.0   675 – Palomar Mountain MPC 5081
1978 11 29.40486 04 29 59.36 +18 46 02.2   675 – Palomar Mountain MPC 5081
1978 11 30.34809 04 28 58.59 +18 49 13.7   675 – Palomar Mountain MPC 5081
1978 11 30.45712 04 28 51.36 +18 49 33.7   675 – Palomar Mountain MPC 5082
2003 09 20.36126 03 14 55.44 +08 46 17.4 18.9   704 – Lincoln Laboratory ETS, New Mexico MPS 85469
2003 09 20.37351 03 14 55.72 +08 46 17.7 19.2   704 – Lincoln Laboratory ETS, New Mexico MPS 85469
2003 09 20.38623 03 14 56.03 +08 46 18.2 19.9   704 – Lincoln Laboratory ETS, New Mexico MPS 85469
2003 09 20.39847 03 14 56.37 +08 46 18.4 19.6   704 – Lincoln Laboratory ETS, New Mexico MPS 85469
2003 09 20.41058 03 14 56.61 +08 46 19.3 19.3   704 – Lincoln Laboratory ETS, New Mexico MPS 85469
2003 09 22.37834 03 15 47.24 +08 47 05.5 19.6 R 699 – Lowell Observatory-LONEOS MPS 85469
2003 09 22.37915 03 15 47.20 +08 47 04.0 19.4 R 699 – Lowell Observatory-LONEOS MPS 85469
2003 09 22.39816 03 15 47.64 +08 47 05.9   699 – Lowell Observatory-LONEOS MPS 85469
2003 09 22.39898 03 15 47.68 +08 47 04.8   699 – Lowell Observatory-LONEOS MPS 85469
2003 09 22.41804 03 15 48.15 +08 47 04.8   699 – Lowell Observatory-LONEOS MPS 85469
2003 09 22.41885 03 15 48.02 +08 47 05.6   699 – Lowell Observatory-LONEOS MPS 85469
2003 09 22.43795 03 15 48.52 +08 47 05.5   699 – Lowell Observatory-LONEOS MPS 85469
2003 09 22.43879 03 15 48.50 +08 47 05.9   699 – Lowell Observatory-LONEOS MPS 85469
2003 09 22.47961 03 15 49.39 +08 47 06.7 19.7   644 – Palomar Mountain/NEAT MPS 85469
2003 09 22.49096 03 15 49.62 +08 47 07.0 19.4   644 – Palomar Mountain/NEAT MPS 85469
2003 09 22.50221 03 15 49.85 +08 47 07.3 19.4   644 – Palomar Mountain/NEAT MPS 85469
2003 10 16.54011 03 14 05.85 +08 37 33.3 20.0   608 – Haleakala-AMOS MPS 89460
2003 10 16.55049 03 14 05.51 +08 37 32.3 20.4   608 – Haleakala-AMOS MPS 89460
2003 10 16.56089 03 14 05.14 +08 37 33.2 20.2   608 – Haleakala-AMOS MPS 89460
2003 10 21.34248 03 11 10.75 +08 34 15.3 18.6   704 – Lincoln Laboratory ETS, New Mexico MPS 89460
2003 10 21.35429 03 11 10.21 +08 34 15.4 19.1   704 – Lincoln Laboratory ETS, New Mexico MPS 89460
2003 10 21.36612 03 11 09.68 +08 34 14.3 19.4   704 – Lincoln Laboratory ETS, New Mexico MPS 89460
2003 10 21.37802 03 11 09.11 +08 34 14.0 19.5   704 – Lincoln Laboratory ETS, New Mexico MPS 89460
2003 10 21.38977 03 11 08.60 +08 34 13.6 19.4   704 – Lincoln Laboratory ETS, New Mexico MPS 89460
2003 10 21.43870 03 11 06.53 +08 34 11.8 18.6   644 – Palomar Mountain/NEAT MPS 89460
2003 10 21.44013 03 11 06.48 +08 34 11.8 18.2   644 – Palomar Mountain/NEAT MPS 89460
2003 10 21.46015 03 11 05.57 +08 34 11.3 18.8   644 – Palomar Mountain/NEAT MPS 89460
2003 10 21.46162 03 11 05.52 +08 34 10.7 18.8   644 – Palomar Mountain/NEAT MPS 89460
2003 10 21.48155 03 11 04.66 +08 34 10.3 19.3   644 – Palomar Mountain/NEAT MPS 89460
2003 10 21.48296 03 11 04.62 +08 34 10.5 18.8   644 – Palomar Mountain/NEAT MPS 89460
2003 10 22.37354 03 10 27.71 +08 33 40.3 19.5   608 – Haleakala-AMOS MPS 89460
2003 10 22.38452 03 10 27.21 +08 33 39.6 19.9   608 – Haleakala-AMOS MPS 89460
2003 10 22.39501 03 10 26.76 +08 33 38.8 20.1   608 – Haleakala-AMOS MPS 89460
2003 10 23.20445 03 09 51.30 +08 33 11.1 18.5 R 699 – Lowell Observatory-LONEOS MPS 89460
2003 10 23.22444 03 09 50.41 +08 33 08.8   699 – Lowell Observatory-LONEOS MPS 89460
2003 10 23.24446 03 09 49.51 +08 33 08.3   699 – Lowell Observatory-LONEOS MPS 89460
2003 10 23.26443 03 09 48.57 +08 33 07.0   699 – Lowell Observatory-LONEOS MPS 89460
2003 10 27.25879 03 06 37.80 +08 31 23.6 18.9   704 – Lincoln Laboratory ETS, New Mexico MPS 89460
2003 10 27.27024 03 06 37.21 +08 31 23.5 19.2   704 – Lincoln Laboratory ETS, New Mexico MPS 89460
2003 10 27.28200 03 06 36.54 +08 31 23.8 19.0   704 – Lincoln Laboratory ETS, New Mexico MPS 89460
2003 11 01.25881 03 02 10.16 +08 30 51.9 19.2   704 – Lincoln Laboratory ETS, New Mexico MPS 90514
2003 11 01.27071 03 02 09.39 +08 30 52.7 18.5   704 – Lincoln Laboratory ETS, New Mexico MPS 90514
2003 11 01.27084 03 02 09.36 +08 30 52.6 18.4   704 – Lincoln Laboratory ETS, New Mexico MPS 90514
2003 11 01.28283 03 02 08.66 +08 30 52.7 18.6   704 – Lincoln Laboratory ETS, New Mexico MPS 90514
2003 11 01.28296 03 02 08.64 +08 30 52.9 18.5   704 – Lincoln Laboratory ETS, New Mexico MPS 90514
2003 11 01.29488 03 02 07.94 +08 30 52.8 18.3   704 – Lincoln Laboratory ETS, New Mexico MPS 90514
2003 11 01.29502 03 02 07.94 +08 30 52.7 18.1   704 – Lincoln Laboratory ETS, New Mexico MPS 90514
2003 11 01.30698 03 02 07.18 +08 30 52.7 18.4   704 – Lincoln Laboratory ETS, New Mexico MPS 90514
2003 11 01.30712 03 02 07.19 +08 30 53.0 18.0   704 – Lincoln Laboratory ETS, New Mexico MPS 90514
2003 11 18.21870 02 45 58.60 +08 50 50.5 17.4 V 703 – Catalina Sky Survey MPS 90989
2003 11 18.22992 02 45 58.02 +08 50 52.5 16.8 V 703 – Catalina Sky Survey MPS 90989
2003 11 18.24115 02 45 57.37 +08 50 53.8 19.0 V 703 – Catalina Sky Survey MPS 90989
2003 11 18.25236 02 45 56.76 +08 50 54.7 19.1 V 703 – Catalina Sky Survey MPS 90989
2003 11 19.25058 02 45 04.22 +08 53 25.5 18.5   644 – Palomar Mountain/NEAT MPS 90989
2003 11 19.27507 02 45 02.86 +08 53 29.2 18.7   644 – Palomar Mountain/NEAT MPS 90989
2003 11 19.30666 02 45 01.08 +08 53 34.2 18.3   644 – Palomar Mountain/NEAT MPS 90989
2003 11 22.19501 02 42 36.53 +09 01 43.7 18.2   704 – Lincoln Laboratory ETS, New Mexico MPS 91829
2003 11 22.23289 02 42 34.51 +09 01 49.5 18.2   704 – Lincoln Laboratory ETS, New Mexico MPS 91829
2003 11 22.24546 02 42 33.82 +09 01 51.5 18.9   704 – Lincoln Laboratory ETS, New Mexico MPS 91829
2003 11 30.20242 02 37 04.88 +09 31 39.9 19.0   704 – Lincoln Laboratory ETS, New Mexico MPS 92741
2003 11 30.21563 02 37 04.47 +09 31 43.0 19.1   704 – Lincoln Laboratory ETS, New Mexico MPS 92741
2003 11 30.22842 02 37 03.90 +09 31 46.9 18.9   704 – Lincoln Laboratory ETS, New Mexico MPS 92741
2003 11 30.24167 02 37 03.45 +09 31 50.7 19.0   704 – Lincoln Laboratory ETS, New Mexico MPS 92741
2003 11 30.25457 02 37 02.95 +09 31 53.9 19.2   704 – Lincoln Laboratory ETS, New Mexico MPS 92741
2003 12 10.24495 02 33 13.15 +10 24 10.9 18.7   644 – Palomar Mountain/NEAT MPS 93405
2003 12 10.26550 02 33 12.84 +10 24 18.1 18.9   644 – Palomar Mountain/NEAT MPS 93405
2003 12 10.29859 02 33 12.37 +10 24 30.2 18.9   644 – Palomar Mountain/NEAT MPS 93405
2003 12 20.14423 02 33 08.51 +11 30 07.3 19.4   704 – Lincoln Laboratory ETS, New Mexico MPS 94703
2003 12 20.15759 02 33 08.61 +11 30 13.1 19.6   704 – Lincoln Laboratory ETS, New Mexico MPS 94704
2003 12 20.18421 02 33 08.75 +11 30 23.4 19.5   704 – Lincoln Laboratory ETS, New Mexico MPS 94704
2003 12 21.14533 02 33 20.49 +11 37 28.6 19.5   704 – Lincoln Laboratory ETS, New Mexico MPS 94704
2003 12 21.15822 02 33 20.64 +11 37 34.4 20.1   704 – Lincoln Laboratory ETS, New Mexico MPS 94704
2003 12 21.17104 02 33 20.74 +11 37 39.1 20.2   704 – Lincoln Laboratory ETS, New Mexico MPS 94704
2003 12 21.18367 02 33 20.95 +11 37 44.6 19.6   704 – Lincoln Laboratory ETS, New Mexico MPS 94704
2003 12 21.19624 02 33 21.03 +11 37 50.0 19.8   704 – Lincoln Laboratory ETS, New Mexico MPS 94704
2003 12 23.14139 02 33 51.22 +11 52 26.5 19.4 C 704 – Lincoln Laboratory ETS, New Mexico MPS 293180
2003 12 23.15409 02 33 51.46 +11 52 31.6 19.1 C 704 – Lincoln Laboratory ETS, New Mexico MPS 293180
2003 12 23.16702 02 33 51.61 +11 52 37.6 19.5 C 704 – Lincoln Laboratory ETS, New Mexico MPS 293180
2003 12 23.19239 02 33 52.01 +11 52 50.2 19.4 C 704 – Lincoln Laboratory ETS, New Mexico MPS 293180
2007 09 18.48013 07 46 01.66 +21 46 34.6 21.4 V G96 – Mt. Lemmon Survey MPS 216137
2007 09 18.48068 07 46 01.70 +21 46 33.7 22.4 V G96 – Mt. Lemmon Survey MPS 216137
2007 09 18.48323 07 46 02.13 +21 46 33.3 21.7 V G96 – Mt. Lemmon Survey MPS 216137
2007 09 18.48379 07 46 02.17 +21 46 33.0 20.9 V G96 – Mt. Lemmon Survey MPS 216137
2007 09 18.48646 07 46 02.53 +21 46 33.1 21.0 V G96 – Mt. Lemmon Survey MPS 216137
2007 09 18.48701 07 46 02.56 +21 46 32.4 21.9 V G96 – Mt. Lemmon Survey MPS 216137
2007 09 18.48954 07 46 02.92 +21 46 31.9 21.3 V G96 – Mt. Lemmon Survey MPS 216137
